Simultaneous Nadir Overpasses (SNOs) Predictions

Prediction of SNOs between METOP-B and NOAA-19 Satellite Orbit:

Table of predicted SNOs for the next 14.0 days since TLE Epoch: 5/28/2022
Index Date (METOP-B) Time (METOP-B) Lat,Lon (METOP-B) SZA (METOP-B ) Date (NOAA-19) Time (NOAA-19) Lat,Lon (NOAA-19) SZA (NOAA-19 ) Distance(km) Time Diff (sec)
1 06/03/2022 13:19:19 80.84, 13.32 60.08 06/03/2022 13:18:20 80.84, 13.37 60.07 0.97 59
2 06/03/2022 14:10:00 -80.84,-179.31 119.92 06/03/2022 14:09:16 -80.84,-179.22 119.93 1.58 44
3 06/03/2022 15:00:41 80.83, -12.16 60.06 06/03/2022 15:00:20 80.84, -12.16 60.06 1.14 21
4 06/03/2022 15:51:22 -80.83, 155.21 119.95 06/03/2022 15:51:16 -80.84, 155.24 119.94 0.87 6
5 06/03/2022 16:42:02 80.84, -37.29 60.08 06/03/2022 16:42:19 80.83, -37.31 60.07 0.99 17
6 06/03/2022 17:32:43 -80.84, 130.08 119.93 06/03/2022 17:33:15 -80.83, 130.08 119.92 1.37 32
7 06/03/2022 18:23:24 80.83, -62.77 60.05 06/03/2022 18:24:19 80.83, -62.84 60.06 1.34 55



Historial Predications of SNOs between METOP-B and NOAA-19
